Fairbanks, AK

5:41 AM AKDT on October 20, 2017 (GMT -0800)
Fairbanks International

Weather History for PAFA - November, 2013

Change the Weather History Date:

Friday, November 8, 2013

  Actual Average Record
Temperature  
Mean Temperature 4 °F 6 °F  
Max Temperature 16 °F 14 °F 41 °F (1976)
Min Temperature -8 °F -2 °F -35 °F (1956)
Degree Days  
Heating Degree Days 61 59  
Month to date heating degree days 388 455  
Since 1 July heating degree days 2163 2714  
Cooling Degree Days 0 0  
Month to date cooling degree days 0 0  
Year to date cooling degree days 226 61  
Moisture  
Dew Point -2 °F    
Average Humidity 77    
Maximum Humidity 86    
Minimum Humidity 58    
Precipitation  
Precipitation T in 0.02 in 0.56 in (1936)
Month to date precipitation 0.08 0.18  
Year to date precipitation 8.21 9.68  
Snow  
Snow T in 0.40 in 4.00 in (1936)
Month to date snowfall 1.3 3.5  
Since 1 July snowfall 2.7 16.1  
Since 1 September snowfall 2.7 16.1  
Snow Depth 2.00 in    
Sea Level Pressure  
Sea Level Pressure 30.17 in    
Wind  
Wind Speed 3 mph (NE)    
Max Wind Speed 7 mph    
Max Gust Speed -    
Visibility 9 miles    
Events Snow    
T = Trace of Precipitation, MM = Missing Value Source: NWS Daily Summary

Daily Weather History Graph

Daily Weather History Graph

Search for Another Location

Airport or City:

Trip Planner

Search our weather history database for the weather conditions in past years. The results will help you decide how hot, cold, wet, or windy it might be!

Date:

Astronomy

Nov. 08, 2013 Rise Set
Actual Time 9:04 AM AKST 4:05 PM AKST
Civil Twilight 8:05 AM AKST 5:03 PM AKST
Nautical Twilight 7:04 AM AKST 6:04 PM AKST
Astronomical Twilight 6:07 AM AKST 7:01 PM AKST
Moon 2:03 PM AKST (11/8) 9:48 PM AKST (11/8)
Length of Visible Light 8h 58m
Length of Day
7h 01m
Waxing Crescent, 34% of the Moon is Illuminated
Nov 8
Waxing Crescent
Nov 9
First Quarter
Nov 17
Full
Nov 25
Last Quarter
Dec 2
New

Hourly Weather History & Observations

Time (AKST) Temp. Windchill Dew Point Humidity Pressure Visibility Wind Dir Wind Speed Gust Speed Precip Events Conditions
12:53 AM -2.0 °F -15.4 °F -8.0 °F 76% 30.02 in 10.0 mi NE 6.9 mph - N/A   Partly Cloudy
1:53 AM 1.0 °F -8.7 °F -5.1 °F 75% 30.04 in 10.0 mi NNE 4.6 mph - N/A   Partly Cloudy
3:53 AM -0.0 °F - -7.1 °F 72% 30.08 in 10.0 mi Calm Calm - N/A   Clear
4:53 AM -5.1 °F - -9.9 °F 80% 30.10 in 10.0 mi Calm Calm - N/A   Clear
5:53 AM -7.1 °F -18.1 °F -11.9 °F 79% 30.13 in 10.0 mi NNE 4.6 mph - N/A   Clear
6:53 AM -7.1 °F -18.1 °F -13.0 °F 75% 30.15 in 10.0 mi NNE 4.6 mph - N/A   Clear
7:53 AM -7.1 °F -15.9 °F -13.0 °F 75% 30.17 in 10.0 mi NE 3.5 mph - N/A   Partly Cloudy
8:53 AM -7.1 °F - -14.1 °F 72% 30.18 in 10.0 mi Calm Calm - N/A   Partly Cloudy
9:24 AM -6.0 °F - -11.9 °F 75% 30.14 in 10.0 mi Calm Calm - N/A   Partly Cloudy
9:53 AM -5.1 °F - -11.9 °F 72% 30.20 in 10.0 mi Calm Calm - N/A   Partly Cloudy
10:53 AM -0.9 °F -8.9 °F -6.0 °F 79% 30.21 in 10.0 mi NE 3.5 mph - N/A   Mostly Cloudy
11:53 AM 1.0 °F -6.7 °F -5.1 °F 75% 30.22 in 10.0 mi North 3.5 mph - N/A   Mostly Cloudy
12:53 PM 3.0 °F -4.4 °F -2.0 °F 80% 30.24 in 10.0 mi NNE 3.5 mph - N/A   Overcast
1:53 PM 5.0 °F -2.1 °F -0.9 °F 76% 30.24 in 10.0 mi NE 3.5 mph - N/A Snow Light Snow
2:53 PM 6.1 °F -0.9 °F 1.0 °F 80% 30.24 in 10.0 mi NE 3.5 mph - N/A Snow Light Snow
3:53 PM 7.0 °F 0.1 °F 1.9 °F 80% 30.24 in 6.0 mi North 3.5 mph - N/A Snow Light Snow
4:53 PM 9.0 °F 2.4 °F 3.0 °F 77% 30.24 in 6.0 mi NNE 3.5 mph - N/A Snow Light Snow
5:53 PM 10.9 °F 4.7 °F 6.1 °F 81% 30.24 in 6.0 mi NE 3.5 mph - N/A Snow Light Snow
6:53 PM 10.9 °F 1.4 °F 7.0 °F 84% 30.22 in 4.0 mi NE 5.8 mph - N/A Snow Light Snow
7:53 PM 12.0 °F 4.1 °F 8.1 °F 84% 30.19 in 6.0 mi NE 4.6 mph - N/A Snow Light Snow
8:47 PM 14.0 °F 8.2 °F 10.4 °F 86% 30.13 in 10.0 mi NNE 3.5 mph - N/A Snow Light Snow
8:53 PM 12.9 °F 6.9 °F 9.0 °F 84% 30.17 in 10.0 mi NE 3.5 mph - N/A   Mostly Cloudy
9:30 PM 12.9 °F 5.2 °F 8.1 °F 81% 30.12 in 10.0 mi NE 4.6 mph - N/A   Mostly Cloudy
9:53 PM 14.0 °F 6.5 °F 9.0 °F 80% 30.15 in 10.0 mi NE 4.6 mph - N/A   Mostly Cloudy
10:53 PM 15.1 °F 9.4 °F 10.0 °F 80% 30.15 in 10.0 mi NE 3.5 mph - N/A   Mostly Cloudy
11:53 PM 12.0 °F - 7.0 °F 80% 30.14 in 10.0 mi Calm Calm - N/A   Mostly Cloudy